Location: Unspecified
(47.0333°N, 0.0000°E)
Time: 01:50:01
(UTC+00:00)

ISS - Visible Passes

Search period start: 25 June 2019 00:00
Search period end: 05 July 2019 00:00
Orbit: 407 x 418 km, 51.6° (Epoch: 25 June)

Date Brightness Start Highest point End Pass type
(mag) Time Alt. Az. Time Alt. Az. Time Alt. Az.
30 Jun -1.1 03:02:49 10° SE 03:03:07 10° SE 03:03:26 10° SE visible
02 Jul -2.1 02:57:47 11° SSW 03:00:12 23° SE 03:02:54 10° E visible
03 Jul -1.6 02:10:01 14° SSE 02:10:48 15° SE 02:12:41 10° E visible
04 Jul -3.4 02:54:58 16° SW 02:57:25 51° SSE 03:00:39 10° ENE visible
